sat.trackr.live / text

‹ back to catalog

GEESAT-3 01

NORAD 61011 · 2024-159A

PAYLOAD ACTIVE UNKNOWN

§ Identity

Operator
Country
PRC
Launch date
2024-09-05
Launch site
TAISC
Launch vehicle
Mass (kg)
RCS (m²)

External: N2YO · Heavens-Above · Gunter

§ Orbital elements

Epoch: 2026-05-25T04:20:51.546624Z

Period
97.03 min
Inclination
49.9991°
Eccentricity
0.0002355
Mean motion
14.84107349 rev/d
Perigee alt
614.7 km
Apogee alt
618.0 km
Semi-major
6,994.5 km
B*
2.1567e-4
RAAN
189.7854°
Arg perigee
165.4445°
Mean anomaly
194.6562°
Rev number
9,326

§ Raw data

GEESAT-3 011 61011U 24159A   26145.18115216  .00001593  00000+0  21567-3 0  99942 61011  49.9991 189.7854 0002355 165.4445 194.6562 14.84107349 93262

JSON: /api/v1/satellites/61011 · /tle

For live sub-satellite position, see the globe view (requires WebGL).

§ Visibility from observer

Set your observer location to see the next 7 days of passes ≥ 10°. The values pass through the URL so the page stays shareable.

No JS? Fill the form by hand. The geolocation button needs JavaScript.